Regional Weather Roundup
Issued by NWS

Home | Current Version | Previous Version | Graphics & Text | Print | Product List | Glossary On
Versions: 1 2 3 4 5 6 7 8 9 10 11 12 13 14 15 16 17 18 19 20 21 22 23 24 25 26 27 28 29 30 31 32 33 34 35 36 37 38 39 40 41 42 43 44 45 46 47 48 49 50
000
ASUS43 KBIS 070210
RWRND

NORTH DAKOTA REGIONAL WEATHER ROUNDUP
NATIONAL WEATHER SERVICE BISMARCK ND
900 PM CDT WED MAY 06 2015

NOTE: "FAIR" INDICATES FEW OR NO CLOUDS BELOW 12,000 FEET WITH NO
SIGNIFICANT WEATHER AND/OR OBSTRUCTIONS TO VISIBILITY.


NDZ001>003-009>011-017-070300-
NORTHWEST NORTH DAKOTA

CITY           SKY/WX    TMP DP  RH WIND       PRES   REMARKS
WILLISTON      LGT RAIN  51  48  89 N16G24    29.74S
MINOT          LGT RAIN  58  57  97 N5        29.64R
MINOT AFB      DRIZZLE   60  60 100 N6        29.63S
$$

NDZ018>021-031>035-040>046-070300-
SOUTHWEST NORTH DAKOTA

CITY           SKY/WX    TMP DP  RH WIND       PRES   REMARKS
BISMARCK       CLOUDY    62  57  83 E8        29.61R
DICKINSON      CLOUDY    51  50  96 NW24G32   29.67R
GARRISON         N/A     60  57  89 N7        29.62S
HETTINGER ARPT LGT RAIN  53  51  93 NW17      29.66R FOG
$$

NDZ004>008-012>016-024-026-027-054-070300-
NORTHEAST NORTH DAKOTA

CITY           SKY/WX    TMP DP  RH WIND       PRES   REMARKS
GRAND FORKS    CLOUDY    61  59  93 E10       29.67F
GRND FRKS AFB  CLOUDY    60  59  94 E13       29.67F
DEVILS LAKE    CLOUDY    59  55  88 E14       29.65F
$$

NDZ022-023-025-028>030-036>039-047>053-070300-
SOUTHEAST NORTH DAKOTA

CITY           SKY/WX    TMP DP  RH WIND       PRES   REMARKS
FARGO          CLOUDY    65  61  87 SE18G24   29.67R
JAMESTOWN      CLOUDY    61  60  97 SE13      29.60F FOG
$$




USA.gov is the U.S. government's official web portal to all federal, state and local government web resources and services.